Flag for U.S.A. Weather past 2 weeks in Galveston, Texas, U.S.A.

Now
83 °F

Clear.


Feels Like: 95 °F
Forecast: 83 / 87 °F
Wind: 13 mph from South

Location: Scholes Field

Current Time: Jul 7, 2015 at 4:16:26 AM

Latest Report: Jul 7, 2015 at 3:52 AM


Visibility: 10 mi

Pressure: 30.04 "Hg

Humidity: 91%

Dew point: 80 °F

Location of GalvestonLocation

Historic Weather in Galveston — Graph

°F

Galveston temperature yesterday

Maximum temperature yesterday: 89 °F (at 12:52 PM)
Minimum temperature yesterday: 83 °F (at 1:52 AM)
Average temperature yesterday: 86 °F

Past Weeks' High & Low Weather Summary

 TemperatureHumidityPressure
High92 °F (Jun 27, 1:52 PM)94% (Jun 28, 4:52 AM)30.17 "Hg (Jun 28, 4:52 AM)
Low76 °F (Jun 30, 4:52 PM)52% (Jun 27, 1:52 PM)29.96 "Hg (Jun 26, 6:52 PM)
Average84 °F80%30.05 "Hg
* Reported Jun 22 2:52 AM — Jul 7 2:52 AM, Galveston, Weather by CustomWeather, © 2015

Note: Actual official high and low records may vary slightly from our data, if they occured in-between our weather recording intervals... More about our weather records

Advertising

Galveston weather history for previous 24 hours

 ConditionsComfort  
Time TempWeatherWind HumidityBarometerVisibility
2:52 AM
Tue, Jul 7
83 °FPassing clouds.14 mph94%30.03 "Hg10 mi
1:52 AM83 °FClear.13 mph91%30.06 "Hg10 mi
12:52 AM84 °FPartly cloudy.9 mph85%30.07 "Hg10 mi
11:52 PM
Mon, Jul 6
84 °FPassing clouds.13 mph85%30.05 "Hg10 mi
10:52 PM84 °FPassing clouds.14 mph85%30.02 "Hg10 mi
9:52 PM84 °FPassing clouds.15 mph83%30.00 "Hg10 mi
8:52 PM84 °FPassing clouds.16 mph83%29.98 "Hg10 mi
7:52 PM85 °FBroken clouds.14 mph80%30.00 "Hg10 mi
6:52 PM87 °FSunny.15 mph75%30.01 "Hg10 mi
5:52 PM88 °FScattered clouds.15 mph73%30.03 "Hg7 mi
4:52 PM89 °FScattered clouds.15 mph70%30.06 "Hg7 mi
3:52 PM89 °FScattered clouds.17 mph70%30.07 "Hg8 mi
2:52 PM89 °FScattered clouds.16 mph70%30.08 "Hg7 mi
1:52 PM89 °FPassing clouds.17 mph68%30.09 "Hg7 mi
12:52 PM89 °FPassing clouds.18 mph68%30.10 "Hg7 mi
11:52 AM88 °FPassing clouds.17 mph70%30.12 "Hg7 mi
10:52 AM88 °FSunny.18 mph73%30.11 "Hg10 mi
9:52 AM87 °FSunny.16 mph75%30.11 "Hg10 mi
8:52 AM86 °FPassing clouds.15 mph77%30.10 "Hg10 mi
7:52 AM84 °FPassing clouds.13 mph85%30.09 "Hg10 mi
6:52 AM83 °FPassing clouds.13 mph88%30.08 "Hg10 mi
5:52 AM83 °FPassing clouds.12 mph88%30.06 "Hg10 mi
4:52 AM83 °FClear.15 mph85%30.06 "Hg10 mi
Weather by CustomWeather, © 2015

See weather overviewHow to use our weather pages